Tracking 19634 objects as of 21-May-2019
HD Live streaming from Space Station
objects crossing your sky now

SL-8 DEB

Track SL-8 DEB now!
10-day predictions


NORAD ID: 5778
Int'l Code: 1971-114C
Perigee: 658.6 km
Apogee: 669.7 km
Inclination: 74.0 °
Period: 97.9 minutes
Semi major axis: 7035 km
RCS: 0.0065 m2 (small)
Launch date: December 17, 1971
Source: Commonwealth of Independent States (former USSR) (CIS)
Launch site: PLESETSK MISSILE AND SPACE COMPLEX (PKMTR)

Note: This is SATELLITE DEBRIS
aabbcc
Your satellite tracking list
Your tracking list is empty




NASA's NSSDC Master Catalog

Two Line Element Set (TLE):
1  5778U 71114C   19141.09661889  .00000319  00000-0  57026-4 0  9991
2  5778  74.0138  31.1398 0007916  33.9184 326.2492 14.71274060517720
Source of the keplerian elements: AFSPC